Location: La Silve
(44.2414°N, 5.8889°E)
Time: 13:11:34
(UTC+00:00)

Cosmos 1943 Rocket - Pass Details

Date: 01 December 2020
Orbit: 811 x 845 km, 71.0° (Epoch: 25 January)

Event Time Altitude Azimuth Distance (km) Brightness Sun altitude
Rises 17:53:08 0° 327° (NNW) 3,360 5.6 -19.9°
Reaches altitude 10° 17:55:42 10° 320° (NW) 2,428 4.9 -20.3°
Maximum altitude 18:00:48 39° 254° (WSW) 1,233 3.6 -21.2°
Drops below altitude 10° 18:05:55 10° 187° (S) 2,434 4.8 -22.1°
Sets 18:08:30 0° 180° (S) 3,369 5.4 -22.6°
